RH
27 27 27 25 21 20 18 18 18 18 17 17 17 19 20 21 23 22 22 26 28 29 31 35 38 41 46 50 52 53 59 67 72 75 84 84 74 83 79 92 97 83 78
29 28 25 21 20 18 18 16 17 17 17 17 17 19 21 22 22 22 24 27 27 29 31 34 37 42 45 47 51 55 61 67 67 68 69 69 67 78 76 91 96 83 86
29 23 21 18 18 16 15 15 16 17 17 18 18 19 21 22 23 22 24 27 28 30 31 34 37 40 43 46 49 51 54 60 63 65 81 82 72 69 79 92 92 91 92
26 24 18 16 16 16 15 16 15 15 15 16 17 18 20 21 22 22 24 28 30 31 32 34 38 41 41 42 44 45 46 50 53 60 75 79 74 81 83 90 94 92 93
26 20 18 16 16 16 15 16 16 15 15 15 16 17 19 20 20 21 25 29 31 30 31 33 35 37 38 39 40 44 48 53 53 58 68 72 74 73 82 89 94 94 88
26 20 18 18 19 18 16 16 16 16 16 16 16 18 18 19 20 23 27 30 29 27 28 30 32 34 36 39 45 46 48 55 55 73 76 75 80 79 88 94 92 90 77
28 22 20 19 19 19 17 16 16 17 17 18 18 17 17 19 21 23 28 29 27 26 25 28 30 34 36 38 40 44 49 54 64 72 73 72 84 91 92 86 78 61 60
32 24 21 21 20 20 20 17 15 17 19 19 19 18 18 20 22 24 27 27 24 23 25 27 29 29 33 39 43 48 49 52 60 68 72 84 83 90 85 77 59 51 62
29 24 22 22 22 21 21 19 18 18 19 20 20 20 20 22 24 25 26 26 22 22 26 27 27 29 37 43 47 48 55 57 69 71 83 80 74 81 73 73 63 51 57
31 24 22 22 22 22 22 22 20 19 19 20 21 22 23 25 26 27 27 27 24 24 27 27 29 31 36 44 50 56 65 66 76 78 81 83 71 78 68 64 59 64 53
31 25 24 22 22 23 24 24 24 24 23 23 24 24 27 29 29 29 29 29 27 27 27 29 32 34 37 42 52 58 68 77 76 76 83 84 69 73 79 79 72 65 48
34 27 26 24 25 26 26 26 27 29 30 30 29 28 28 33 34 33 31 31 31 31 31 32 35 37 39 44 44 58 68 77 77 76 83 83 85 86 93 91 82 70 50
38 37 30 27 28 29 29 29 31 37 37 37 36 35 32 34 35 35 34 32 32 34 34 34 36 39 43 50 51 51 63 70 79 82 77 81 93 93 93 88 78 65 47
39 40 36 31 31 33 33 33 34 34 36 40 37 35 31 30 32 35 35 36 38 37 41 40 40 42 45 47 55 52 54 65 76 79 81 85 89 96 93 87 76 62 46
39 41 41 34 35 36 37 39 39 35 35 43 39 33 34 34 34 37 37 38 39 40 43 44 44 43 46 49 54 56 57 55 60 75 84 87 91 93 93 89 77 67 47
33 44 49 40 37 40 42 42 41 40 37 38 40 35 35 37 37 36 41 41 41 41 43 45 45 45 44 50 52 56 62 59 53 72 85 91 93 88 91 87 74 68 58
32 35 49 56 46 41 43 48 49 43 41 40 41 39 37 37 38 40 45 45 46 45 46 47 47 47 47 49 52 57 63 65 61 58 84 89 91 91 92 84 83 68 66
31 34 38 55 62 59 53 52 53 50 43 47 50 47 44 42 41 42 46 50 52 49 49 51 50 47 49 49 52 56 63 67 68 59 67 81 91 91 92 85 78 65 70
29 32 35 36 46 52 57 63 64 66 60 55 51 49 48 50 50 48 49 51 55 54 55 56 53 51 48 53 54 56 66 71 73 66 61 72 86 94 94 90 79 73 53
27 31 33 34 34 43 45 48 53 60 69 66 56 56 55 55 57 54 51 53 57 60 60 60 60 56 52 55 56 58 67 74 77 72 62 67 80 90 94 92 89 73 55
22 23 27 30 32 36 41 49 54 52 58 64 57 56 56 54 59 58 56 58 61 62 66 66 65 62 60 55 61 60 64 70 75 73 64 55 67 90 94 96 91 88 57
20 22 23 24 28 33 35 38 43 46 49 49 52 47 51 57 60 67 64 65 68 70 73 72 71 69 65 60 60 62 61 69 75 70 69 61 54 66 91 95 95 94 79
17 19 20 21 19 23 28 32 38 42 42 43 41 42 48 51 65 74 69 67 71 87 84 81 77 78 74 68 69 62 60 68 76 68 65 65 54 51 68 83 94 96 90
22 17 17 19 18 18 21 24 28 35 35 37 42 41 48 52 62 77 72 71 74 72 98 86 81 79 82 77 73 68 63 61 74 75 69 66 61 46 59 69 85 99 94
24 23 27 21 19 17 17 21 22 27 30 36 35 41 44 49 60 74 76 75 77 75 73 90 90 83 84 82 68 67 66 77 79 79 73 70 65 48 49 58 79 95 95
36 33 28 32 31 21 19 20 22 23 35 40 41 42 47 58 70 81 86 89 83 73 66 73 80 86 86 83 74 72 70 76 76 84 79 79 73 60 47 52 65 90 93